INTELSAT 17 (IS-17)

Last updated on Mon Nov 03 2025 00:02:56 GMT+0000 (Coordinated Universal Time)

1 37238U 10065B 25306.50633931 .00000010 00000+0 00000+0 0 9990 2 37238 0.0242 144.0772 0002449 82.9472 63.3028 1.00271759 50974
UTC large
Height (km)
Speed (km/s)
/
Latitude / Longitude
Inclination (degrees)
Orbital Period (minutes)
Azimuth
Elevation
Range (km)
Doppler Factor

Next 0 passes for location: London (51.5072 / 0.1276)

Sorry there are no passes over London.